{"data":{"norad_id":64554,"intl_designator":"2025-135AC","name":"TRANSPORTER-14 OBJECT AC","alt_names":[],"object_type":"PAYLOAD","status":"ACTIVE","operator":null,"country":"TBD","launch_date":"2025-06-23","launch_site_code":"AFWTR","launch_vehicle":null,"mission":null,"orbit_class":"UNKNOWN","rcs_meters":null,"size_class":null,"mass_kg":null,"dimensions":null,"purposes":[],"wikipedia_slug":null,"has_3d_model":false,"image_url":null,"decayed_at":null,"tle_current":{"epoch":"2026-05-24T18:18:17.721504Z","epoch_age_seconds":102467,"freshness":"FRESH","line1":"1 64554U 25135AC  26144.76270511  .00016499  00000+0  57357-3 0  9994","line2":"2 64554  97.4612 261.7838 0001769  64.8670 295.2754 15.29804772 51425","mean_motion":15.29804772,"eccentricity":0.0001769,"inclination_deg":97.4612,"raan_deg":261.7838,"arg_perigee_deg":64.867,"mean_anomaly_deg":295.2754,"bstar":0.00057357,"rev_number":5142,"period_min":94.129658003185,"perigee_km":475.1828362608,"apogee_km":477.60796982499,"semimajor_km":6854.5324030429,"source":"CELESTRAK","updated_at":"2026-05-25T13:38:04.614797Z"}}}